TimeMDT,TemperatureF,Dew PointF,Humidity,Sea Level PressureIn,VisibilityMPH,Wind Direction,Wind SpeedMPH,Gust SpeedMPH,PrecipitationIn,Events,Conditions,WindDirDegrees,DateUTC
12:55 AM,44.1,41.0,89,29.90,10.0,Calm,Calm,-,N/A,,Overcast,0,2012-10-24 06:55:00
1:55 AM,44.1,42.1,93,29.93,10.0,West,3.5,-,N/A,,Overcast,270,2012-10-24 07:55:00
2:14 AM,44.6,42.8,93,29.94,10.0,Calm,Calm,-,N/A,,Overcast,0,2012-10-24 08:14:00
2:55 AM,43.0,41.0,93,29.92,10.0,ENE,3.5,-,N/A,,Overcast,70,2012-10-24 08:55:00
3:55 AM,42.1,37.0,82,29.96,10.0,Calm,Calm,-,N/A,,Overcast,0,2012-10-24 09:55:00
4:55 AM,42.1,37.9,85,29.99,10.0,NW,3.5,-,0.00,Rain,Light Rain,320,2012-10-24 10:55:00
5:55 AM,42.1,37.9,85,29.99,10.0,NNE,4.6,-,0.01,Rain,Light Rain,20,2012-10-24 11:55:00
6:55 AM,41.0,39.0,93,29.98,10.0,North,5.8,-,0.01,Rain,Light Rain,10,2012-10-24 12:55:00
7:55 AM,39.9,37.9,93,29.99,10.0,North,5.8,-,0.01,Rain,Light Rain,10,2012-10-24 13:55:00
8:55 AM,39.0,36.0,89,30.00,10.0,NE,6.9,-,0.02,Rain,Light Rain,50,2012-10-24 14:55:00
9:55 AM,39.9,37.0,89,30.02,8.0,NE,4.6,-,0.03,Rain,Light Rain,40,2012-10-24 15:55:00
10:42 AM,39.2,37.4,93,30.00,6.0,NNE,5.8,-,0.04,Rain,Light Rain,20,2012-10-24 16:42:00
10:55 AM,39.9,37.9,93,30.03,6.0,NE,8.1,-,0.05,Rain,Light Rain,40,2012-10-24 16:55:00
11:55 AM,39.9,37.0,89,30.02,10.0,NNE,11.5,-,0.04,Rain,Light Rain,20,2012-10-24 17:55:00
12:55 PM,39.0,36.0,89,30.01,10.0,North,12.7,-,0.02,Rain,Light Rain,360,2012-10-24 18:55:00
1:02 PM,39.2,35.6,87,29.98,10.0,North,15.0,-,0.00,Rain,Light Rain,360,2012-10-24 19:02:00
1:26 PM,37.4,33.8,87,29.98,9.0,North,15.0,-,0.01,Rain,Light Rain,360,2012-10-24 19:26:00
1:55 PM,37.0,34.0,89,30.01,9.0,North,10.4,-,0.02,Rain,Light Rain,350,2012-10-24 19:55:00
2:05 PM,37.4,35.6,93,29.98,8.0,North,12.7,-,0.01,Rain,Light Rain,350,2012-10-24 20:05:00
3:22 PM,35.6,33.8,93,29.98,10.0,North,10.4,-,0.02,Rain,Light Rain,350,2012-10-24 21:22:00
3:55 PM,35.1,33.1,92,30.02,6.0,NNW,11.5,-,0.03,Snow,Light Snow,340,2012-10-24 21:55:00
4:09 PM,35.6,33.8,93,29.99,5.0,NNW,9.2,-,0.01,Snow,Light Snow,340,2012-10-24 22:09:00
4:17 PM,35.6,33.8,93,29.99,5.0,NNW,9.2,-,0.02,Snow,Light Snow,340,2012-10-24 22:17:00
4:55 PM,35.1,34.0,96,30.04,5.0,NNW,15.0,-,0.05,Rain,Light Rain,340,2012-10-24 22:55:00
5:17 PM,35.6,33.8,93,30.02,6.0,NNW,13.8,-,0.01,Rain,Light Rain,330,2012-10-24 23:17:00
5:45 PM,35.6,33.8,93,30.03,8.0,NNW,13.8,-,0.03,Snow,Light Snow,340,2012-10-24 23:45:00
5:55 PM,34.0,32.0,92,30.07,3.0,NNW,10.4,-,0.03,Snow,Light Snow,330,2012-10-24 23:55:00
6:04 PM,33.8,32.0,93,30.03,2.5,NNW,10.4,-,0.01,Snow,Light Snow,330,2012-10-25 00:04:00
6:19 PM,33.8,32.0,93,30.04,1.5,NNW,9.2,-,0.02,Snow,Light Snow,330,2012-10-25 00:19:00
6:36 PM,33.8,32.0,93,30.05,1.8,NNW,11.5,-,0.04,Snow,Light Snow,340,2012-10-25 00:36:00
6:40 PM,33.8,32.0,93,30.05,2.0,North,11.5,-,0.04,Snow,Light Snow,350,2012-10-25 00:40:00
6:52 PM,33.8,32.0,93,30.06,3.0,NNW,6.9,-,0.05,Snow,Light Snow,340,2012-10-25 00:52:00
6:55 PM,33.1,32.0,96,30.10,3.0,NNW,5.8,-,0.05,Snow,Light Snow,340,2012-10-25 00:55:00
7:04 PM,33.8,32.0,93,30.06,2.5,NNW,4.6,-,0.01,Snow,Light Snow,340,2012-10-25 01:04:00
7:10 PM,33.8,33.8,100,30.06,3.0,North,3.5,-,0.01,Snow,Light Snow,350,2012-10-25 01:10:00
7:44 PM,33.8,32.0,93,30.07,1.8,Calm,Calm,-,0.02,Snow,Light Snow,0,2012-10-25 01:44:00
7:55 PM,33.1,32.0,96,30.12,2.0,Calm,Calm,-,0.03,Snow,Light Snow,0,2012-10-25 01:55:00
8:14 PM,33.8,32.0,93,30.07,3.0,Calm,Calm,-,0.01,Snow,Light Snow,0,2012-10-25 02:14:00
8:42 PM,33.8,32.0,93,30.07,9.0,West,4.6,-,0.01,,Overcast,260,2012-10-25 02:42:00
8:55 PM,33.1,32.0,96,30.12,9.0,WNW,4.6,-,0.01,,Overcast,300,2012-10-25 02:55:00
9:55 PM,35.1,30.9,85,30.12,10.0,NNW,6.9,-,N/A,,Overcast,330,2012-10-25 03:55:00
10:55 PM,34.0,30.9,89,30.11,10.0,NNW,11.5,-,N/A,,Overcast,330,2012-10-25 04:55:00
11:55 PM,34.0,30.0,85,30.11,10.0,NW,9.2,-,N/A,,Clear,320,2012-10-25 05:55:00